User: anonymous   Login
Location: Lafig�re
(44.4503°N, 4.0357°E)
Time: 09:12:49
(UTC+00:00)
Language:

Milstar 3 Cent rocket - Orbit

View from above orbital plane
View from above orbital plane
View from above satellite
View from above satellite

Ground track
Ground track

The orbit data is extracted from the following two-line orbital elements,

1 25725U 99023B   21209.87516129  .00000023  00000-0 -18778-4 0  9998
2 25725  28.3165 131.9507 2383354 352.1659   4.7137  9.67241718 84181
Epoch (UTC): 28 July 2021 21:00:13
Eccentricity: 0.2383354
inclination: 28.3165°
perigee height: 709 km
apogee height: 5144 km
right ascension of ascending node: 131.9507°
argument of perigee: 352.1659°
revolutions per day: 9.67241718
mean anomaly at epoch: 4.7137°
orbit number at epoch: 8418

The dashed part of the orbit path shows where the satellite is in the earth's shadow,  

DLR